Time,TemperatureF,DewpointF,PressureIn,WindDirection,WindDirectionDegrees,WindSpeedMPH,WindSpeedGustMPH,Humidity,HourlyPrecipIn,Conditions,Clouds,dailyrainin,SoftwareType,DateUTC
2013-05-19 00:04:00,56.3,29.0,29.35,South,183,3.6,4.5,35,0.00,,---,0.00,VWS V14.01,2013-05-19 07:04:00,
2013-05-19 00:09:00,56.3,29.0,29.35,South,176,0.0,3.6,35,0.00,,---,0.00,VWS V14.01,2013-05-19 07:09:00,
2013-05-19 00:14:00,56.3,29.0,29.35,SW,221,4.9,6.7,35,0.00,,---,0.00,VWS V14.01,2013-05-19 07:14:00,
2013-05-19 00:19:00,56.8,28.8,29.35,SW,230,6.3,6.7,34,0.00,,---,0.00,VWS V14.01,2013-05-19 07:19:00,
2013-05-19 00:24:00,57.4,27.8,29.35,SSW,208,4.9,5.4,32,0.00,,---,0.00,VWS V14.01,2013-05-19 07:24:00,
2013-05-19 00:29:00,57.2,26.9,29.35,SSW,212,2.7,3.1,31,0.00,,---,0.00,VWS V14.01,2013-05-19 07:29:00,
2013-05-19 00:34:00,57.2,26.9,29.35,SW,229,5.4,5.8,31,0.00,,---,0.00,VWS V14.01,2013-05-19 07:34:00,
2013-05-19 00:39:00,56.3,25.3,29.35,WSW,237,3.6,3.6,30,0.00,,---,0.00,VWS V14.01,2013-05-19 07:39:00,
2013-05-19 00:44:00,55.2,25.1,29.35,WSW,256,0.0,0.0,31,0.00,,---,0.00,VWS V14.01,2013-05-19 07:44:00,
2013-05-19 00:49:00,54.1,27.1,29.35,WNW,285,0.0,0.0,35,0.00,,---,0.00,VWS V14.01,2013-05-19 07:49:00,
2013-05-19 00:55:00,53.1,27.5,29.35,NW,321,5.4,5.8,37,0.00,,---,0.00,VWS V14.01,2013-05-19 07:55:00,
2013-05-19 01:00:00,52.7,27.8,29.35,NNW,331,4.9,6.7,38,0.00,,---,0.00,VWS V14.01,2013-05-19 08:00:00,
2013-05-19 01:05:00,51.6,28.7,29.35,North,351,4.5,5.4,41,0.00,,---,0.00,VWS V14.01,2013-05-19 08:05:00,
2013-05-19 01:10:00,51.6,31.5,29.35,North,351,4.0,4.5,46,0.00,,---,0.00,VWS V14.01,2013-05-19 08:10:00,
2013-05-19 01:15:00,51.6,31.5,29.35,North,351,4.0,4.0,46,0.00,,---,0.00,VWS V14.01,2013-05-19 08:15:00,
2013-05-19 01:20:00,51.3,30.1,29.35,North,351,3.6,3.6,44,0.00,,---,0.00,VWS V14.01,2013-05-19 08:20:00,
2013-05-19 01:25:00,50.9,30.9,29.35,North,351,0.0,0.0,46,0.00,,---,0.00,VWS V14.01,2013-05-19 08:25:00,
2013-05-19 01:30:00,50.7,31.2,29.35,North,351,0.0,0.0,47,0.00,,---,0.00,VWS V14.01,2013-05-19 08:30:00,
2013-05-19 01:35:00,50.9,32.4,29.35,North,351,0.0,0.0,49,0.00,,---,0.00,VWS V14.01,2013-05-19 08:35:00,
2013-05-19 01:40:00,51.1,32.1,29.35,North,351,0.0,0.0,48,0.00,,---,0.00,VWS V14.01,2013-05-19 08:40:00,
2013-05-19 01:45:00,51.4,32.9,29.35,North,351,0.0,0.0,49,0.00,,---,0.00,VWS V14.01,2013-05-19 08:45:00,
2013-05-19 01:50:00,51.6,33.6,29.35,North,351,0.0,0.0,50,0.00,,---,0.00,VWS V14.01,2013-05-19 08:50:00,
2013-05-19 01:55:00,51.4,32.9,29.35,North,351,0.0,0.0,49,0.00,,---,0.00,VWS V14.01,2013-05-19 08:55:00,
2013-05-19 02:00:00,50.9,31.9,29.35,North,351,0.0,0.0,48,0.00,,---,0.00,VWS V14.01,2013-05-19 09:00:00,
2013-05-19 02:05:00,51.3,33.3,29.35,North,351,0.0,0.0,50,0.00,,---,0.00,VWS V14.01,2013-05-19 09:05:00,
2013-05-19 02:10:00,51.1,33.1,29.35,North,351,0.0,0.0,50,0.00,,---,0.00,VWS V14.01,2013-05-19 09:10:00,
2013-05-19 02:15:00,50.9,32.9,29.35,North,351,0.0,0.0,50,0.00,,---,0.00,VWS V14.01,2013-05-19 09:15:00,
2013-05-19 02:20:00,52.2,36.0,29.35,North,351,3.1,3.6,54,0.00,,---,0.00,VWS V14.01,2013-05-19 09:20:00,
2013-05-19 02:25:00,52.2,34.1,29.35,NE,35,0.0,0.0,50,0.00,,---,0.00,VWS V14.01,2013-05-19 09:25:00,
2013-05-19 02:30:00,52.2,33.6,29.35,ENE,65,0.0,3.1,49,0.00,,---,0.00,VWS V14.01,2013-05-19 09:30:00,
2013-05-19 02:35:00,52.2,33.6,29.35,East,84,2.7,3.1,49,0.00,,---,0.00,VWS V14.01,2013-05-19 09:35:00,
2013-05-19 02:40:00,52.2,33.1,29.35,East,84,0.0,0.0,48,0.00,,---,0.00,VWS V14.01,2013-05-19 09:40:00,
2013-05-19 02:45:00,51.8,32.8,29.35,East,84,0.0,0.0,48,0.00,,---,0.00,VWS V14.01,2013-05-19 09:45:00,
2013-05-19 02:50:00,51.6,33.1,29.35,East,95,3.6,4.0,49,0.00,,---,0.00,VWS V14.01,2013-05-19 09:50:00,
2013-05-19 02:56:00,51.3,32.8,29.35,ESE,104,3.1,4.9,49,0.00,,---,0.00,VWS V14.01,2013-05-19 09:56:00,
2013-05-19 03:01:00,51.1,32.6,29.35,ESE,103,3.6,3.6,49,0.00,,---,0.00,VWS V14.01,2013-05-19 10:01:00,
2013-05-19 03:06:00,51.6,34.1,29.35,East,95,3.1,4.0,51,0.00,,---,0.00,VWS V14.01,2013-05-19 10:06:00,
2013-05-19 03:11:00,51.4,33.9,29.35,East,95,0.0,0.0,51,0.00,,---,0.00,VWS V14.01,2013-05-19 10:11:00,
2013-05-19 03:16:00,50.7,31.8,29.35,East,95,0.0,0.0,48,0.00,,---,0.00,VWS V14.01,2013-05-19 10:16:00,
2013-05-19 03:21:00,50.0,30.6,29.35,East,95,0.0,0.0,47,0.00,,---,0.00,VWS V14.01,2013-05-19 10:21:00,
2013-05-19 03:26:00,49.3,29.9,29.35,North,356,0.0,0.0,47,0.00,,---,0.00,VWS V14.01,2013-05-19 10:26:00,
2013-05-19 03:31:00,48.2,28.9,29.35,North,5,0.0,0.0,47,0.00,,---,0.00,VWS V14.01,2013-05-19 10:31:00,
2013-05-19 03:36:00,48.6,31.3,29.35,NE,43,0.0,0.0,51,0.00,,---,0.00,VWS V14.01,2013-05-19 10:36:00,
2013-05-19 03:41:00,48.6,31.8,29.35,NE,43,0.0,0.0,52,0.00,,---,0.00,VWS V14.01,2013-05-19 10:41:00,
2013-05-19 03:46:00,49.8,36.5,29.35,NE,43,0.0,0.0,60,0.00,,---,0.00,VWS V14.01,2013-05-19 10:46:00,
2013-05-19 03:51:00,50.4,37.4,29.35,ESE,117,4.0,4.0,61,0.00,,---,0.00,VWS V14.01,2013-05-19 10:51:00,
2013-05-19 03:57:00,50.5,36.8,29.35,ESE,119,2.7,3.6,59,0.00,,---,0.00,VWS V14.01,2013-05-19 10:57:00,
2013-05-19 04:02:00,50.0,34.0,29.35,East,87,4.5,4.5,54,0.00,,---,0.00,VWS V14.01,2013-05-19 11:02:00,
2013-05-19 04:07:00,49.8,34.3,29.35,East,92,3.6,3.6,55,0.00,,---,0.00,VWS V14.01,2013-05-19 11:07:00,
2013-05-19 04:12:00,49.8,34.8,29.35,ESE,108,0.0,0.0,56,0.00,,---,0.00,VWS V14.01,2013-05-19 11:12:00,
2013-05-19 04:17:00,48.9,33.5,29.35,ESE,108,0.0,0.0,55,0.00,,---,0.00,VWS V14.01,2013-05-19 11:17:00,
2013-05-19 04:22:00,48.9,33.9,29.35,ESE,108,0.0,0.0,56,0.00,,---,0.00,VWS V14.01,2013-05-19 11:22:00,
2013-05-19 04:27:00,49.5,35.3,29.35,ESE,108,0.0,0.0,58,0.00,,---,0.00,VWS V14.01,2013-05-19 11:27:00,
2013-05-19 04:32:00,49.5,36.6,29.35,ESE,121,0.0,0.0,61,0.00,,---,0.00,VWS V14.01,2013-05-19 11:32:00,
2013-05-19 04:37:00,48.7,35.1,29.35,ESE,121,0.0,0.0,59,0.00,,---,0.00,VWS V14.01,2013-05-19 11:37:00,
2013-05-19 04:42:00,48.6,34.9,29.35,ESE,121,0.0,0.0,59,0.00,,---,0.00,VWS V14.01,2013-05-19 11:42:00,
2013-05-19 04:47:00,48.0,34.0,29.35,ESE,121,0.0,0.0,58,0.00,,---,0.00,VWS V14.01,2013-05-19 11:47:00,
2013-05-19 04:52:00,47.5,33.0,29.35,ESE,121,0.0,0.0,57,0.00,,---,0.00,VWS V14.01,2013-05-19 11:52:00,
2013-05-19 04:57:00,47.3,32.8,29.35,North,10,3.6,3.6,57,0.00,,---,0.00,VWS V14.01,2013-05-19 11:57:00,
2013-05-19 05:02:00,47.5,34.3,29.35,NE,46,0.0,3.6,60,0.00,,---,0.00,VWS V14.01,2013-05-19 12:02:00,
2013-05-19 05:07:00,48.4,36.8,29.35,East,97,3.6,3.6,64,0.00,,---,0.00,VWS V14.01,2013-05-19 12:07:00,
2013-05-19 05:12:00,48.4,37.6,29.35,East,93,0.0,3.1,66,0.00,,---,0.00,VWS V14.01,2013-05-19 12:12:00,
2013-05-19 05:17:00,48.0,36.4,29.35,SSE,151,0.0,0.0,64,0.00,,---,0.00,VWS V14.01,2013-05-19 12:17:00,
2013-05-19 05:22:00,48.4,37.2,29.35,SE,142,0.0,3.1,65,0.00,,---,0.00,VWS V14.01,2013-05-19 12:22:00,
2013-05-19 05:27:00,48.0,36.4,29.35,SE,126,0.0,0.0,64,0.00,,---,0.00,VWS V14.01,2013-05-19 12:27:00,
2013-05-19 05:32:00,47.3,35.4,29.35,SE,126,0.0,0.0,63,0.00,,---,0.00,VWS V14.01,2013-05-19 12:32:00,
2013-05-19 05:37:00,46.9,35.0,29.35,ESE,103,3.6,3.6,63,0.00,,---,0.00,VWS V14.01,2013-05-19 12:37:00,
2013-05-19 05:42:00,47.1,36.0,29.35,NNW,346,0.0,0.0,65,0.00,,---,0.00,VWS V14.01,2013-05-19 12:42:00,
2013-05-19 05:47:00,46.6,35.1,29.35,NNW,344,0.0,4.5,64,0.00,,---,0.00,VWS V14.01,2013-05-19 12:47:00,
2013-05-19 05:52:00,46.4,34.9,29.35,NNW,344,0.0,0.0,64,0.00,,---,0.00,VWS V14.01,2013-05-19 12:52:00,
2013-05-19 05:57:00,46.6,35.5,29.35,NNW,344,0.0,0.0,65,0.00,,---,0.00,VWS V14.01,2013-05-19 12:57:00,
2013-05-19 06:02:00,46.6,35.8,29.35,NNW,344,0.0,0.0,66,0.00,,---,0.00,VWS V14.01,2013-05-19 13:02:00,
2013-05-19 06:07:00,47.8,38.2,29.35,NE,53,2.7,3.6,69,0.00,,---,0.00,VWS V14.01,2013-05-19 13:07:00,
2013-05-19 06:12:00,48.2,38.9,29.35,ENE,60,2.7,2.7,70,0.00,,---,0.00,VWS V14.01,2013-05-19 13:12:00,
2013-05-19 06:17:00,48.2,38.9,29.35,ESE,114,0.0,0.0,70,0.00,,---,0.00,VWS V14.01,2013-05-19 13:17:00,
2013-05-19 06:22:00,48.6,39.2,29.35,ESE,114,0.0,2.7,70,0.00,,---,0.00,VWS V14.01,2013-05-19 13:22:00,
2013-05-19 06:27:00,50.7,41.3,29.35,ESE,114,0.0,0.0,70,0.00,,---,0.00,VWS V14.01,2013-05-19 13:27:00,
2013-05-19 06:32:00,52.3,41.7,29.35,ESE,121,0.0,0.0,67,0.00,,---,0.00,VWS V14.01,2013-05-19 13:32:00,
2013-05-19 06:37:00,54.1,36.9,29.35,East,91,0.0,2.7,52,0.00,,---,0.00,VWS V14.01,2013-05-19 13:37:00,
2013-05-19 06:42:00,53.2,30.2,29.35,East,81,0.0,0.0,41,0.00,,---,0.00,VWS V14.01,2013-05-19 13:42:00,
2013-05-19 06:47:00,51.8,28.9,29.35,North,351,0.0,0.0,41,0.00,,---,0.00,VWS V14.01,2013-05-19 13:47:00,
2013-05-19 06:52:00,51.3,30.1,29.35,NNW,336,0.0,0.0,44,0.00,,---,0.00,VWS V14.01,2013-05-19 13:52:00,
2013-05-19 06:57:00,51.4,32.4,29.35,North,351,0.0,0.0,48,0.00,,---,0.00,VWS V14.01,2013-05-19 13:57:00,
2013-05-19 07:02:00,52.3,33.8,29.35,North,351,0.0,0.0,49,0.00,,---,0.00,VWS V14.01,2013-05-19 14:02:00,
2013-05-19 07:07:00,52.9,33.2,29.35,North,351,0.0,0.0,47,0.00,,---,0.00,VWS V14.01,2013-05-19 14:07:00,
2013-05-19 07:12:00,53.4,33.2,29.35,North,351,0.0,0.0,46,0.00,,---,0.00,VWS V14.01,2013-05-19 14:12:00,
2013-05-19 07:17:00,54.0,32.6,29.35,North,356,0.0,0.0,44,0.00,,---,0.00,VWS V14.01,2013-05-19 14:17:00,
2013-05-19 07:22:00,54.5,33.6,29.35,North,351,0.0,0.0,45,0.00,,---,0.00,VWS V14.01,2013-05-19 14:22:00,
2013-05-19 07:27:00,55.0,32.4,29.35,NNW,341,3.1,3.6,42,0.00,,---,0.00,VWS V14.01,2013-05-19 14:27:00,
2013-05-19 07:32:00,56.3,32.3,29.35,NW,311,0.0,0.0,40,0.00,,---,0.00,VWS V14.01,2013-05-19 14:32:00,
2013-05-19 07:37:00,57.0,30.4,29.35,NNW,328,0.0,0.0,36,0.00,,---,0.00,VWS V14.01,2013-05-19 14:37:00,
2013-05-19 07:42:00,57.9,31.1,29.35,NW,308,0.0,0.0,36,0.00,,---,0.00,VWS V14.01,2013-05-19 14:42:00,
2013-05-19 07:47:00,58.6,30.4,29.35,NW,308,0.0,0.0,34,0.00,,---,0.00,VWS V14.01,2013-05-19 14:47:00,
2013-05-19 07:53:00,59.7,28.3,29.35,NNW,334,0.0,3.6,30,0.00,,---,0.00,VWS V14.01,2013-05-19 14:53:00,
2013-05-19 07:58:00,59.9,27.6,29.35,NW,316,0.0,0.0,29,0.00,,---,0.00,VWS V14.01,2013-05-19 14:58:00,
2013-05-19 08:03:00,60.3,27.0,29.35,West,262,0.0,0.0,28,0.00,,---,0.00,VWS V14.01,2013-05-19 15:03:00,
2013-05-19 08:08:00,60.8,26.6,29.35,SSW,199,0.0,0.0,27,0.00,,---,0.00,VWS V14.01,2013-05-19 15:08:00,
2013-05-19 08:13:00,61.9,26.6,29.35,SW,216,0.0,3.6,26,0.00,,---,0.00,VWS V14.01,2013-05-19 15:13:00,
2013-05-19 08:18:00,63.5,27.1,29.35,SW,216,0.0,0.0,25,0.00,,---,0.00,VWS V14.01,2013-05-19 15:18:00,
2013-05-19 08:23:00,64.8,27.2,29.35,SW,218,4.0,4.5,24,0.00,,---,0.00,VWS V14.01,2013-05-19 15:23:00,
2013-05-19 08:28:00,64.2,25.7,29.35,SSW,195,5.8,6.3,23,0.00,,---,0.00,VWS V14.01,2013-05-19 15:28:00,
2013-05-19 08:33:00,65.1,26.4,29.35,SSW,202,3.6,5.4,23,0.00,,---,0.00,VWS V14.01,2013-05-19 15:33:00,
2013-05-19 08:38:00,66.0,26.1,29.35,SW,236,0.0,5.4,22,0.00,,---,0.00,VWS V14.01,2013-05-19 15:38:00,
2013-05-19 08:43:00,66.6,26.6,29.35,SW,234,0.0,5.8,22,0.00,,---,0.00,VWS V14.01,2013-05-19 15:43:00,
2013-05-19 08:48:00,66.7,24.4,29.35,WSW,249,4.9,6.7,20,0.00,,---,0.00,VWS V14.01,2013-05-19 15:48:00,
2013-05-19 08:53:00,68.7,22.2,29.35,SW,229,5.8,5.8,17,0.00,,---,0.00,VWS V14.01,2013-05-19 15:53:00,
2013-05-19 08:58:00,69.6,22.9,29.35,WSW,243,4.9,5.4,17,0.00,,---,0.00,VWS V14.01,2013-05-19 15:58:00,
2013-05-19 09:03:00,71.2,22.8,29.35,SW,232,4.5,6.7,16,0.00,,---,0.00,VWS V14.01,2013-05-19 16:03:00,
2013-05-19 09:08:00,71.6,19.9,29.35,North,4,0.0,5.8,14,0.00,,---,0.00,VWS V14.01,2013-05-19 16:08:00,
2013-05-19 09:13:00,72.0,20.2,29.35,NW,309,8.3,8.3,14,0.00,,---,0.00,VWS V14.01,2013-05-19 16:13:00,
2013-05-19 09:18:00,70.9,19.4,29.35,West,266,8.3,12.5,14,0.00,,---,0.00,VWS V14.01,2013-05-19 16:18:00,
2013-05-19 09:23:00,70.7,19.2,29.35,NNW,347,12.1,12.5,14,0.00,,---,0.00,VWS V14.01,2013-05-19 16:23:00,
2013-05-19 09:28:00,70.5,19.1,29.35,NNW,342,12.1,15.2,14,0.00,,---,0.00,VWS V14.01,2013-05-19 16:28:00,
2013-05-19 09:33:00,71.1,19.5,29.32,NNW,334,13.4,16.8,14,0.00,,---,0.00,VWS V14.01,2013-05-19 16:33:00,
2013-05-19 09:38:00,69.8,18.5,29.32,NNW,343,14.3,14.3,14,0.00,,---,0.00,VWS V14.01,2013-05-19 16:38:00,
2013-05-19 09:43:00,70.7,19.2,29.32,NNW,343,9.6,11.2,14,0.00,,---,0.00,VWS V14.01,2013-05-19 16:43:00,
2013-05-19 09:48:00,70.9,19.4,29.35,North,351,15.4,17.7,14,0.00,,---,0.00,VWS V14.01,2013-05-19 16:48:00,
2013-05-19 09:53:00,70.9,19.4,29.35,NNW,333,12.1,16.3,14,0.00,,---,0.00,VWS V14.01,2013-05-19 16:53:00,
2013-05-19 09:58:00,71.4,19.8,29.35,NNW,334,13.0,14.3,14,0.00,,---,0.00,VWS V14.01,2013-05-19 16:58:00,
2013-05-19 10:03:00,71.1,19.5,29.32,North,356,13.4,16.3,14,0.00,,---,0.00,VWS V14.01,2013-05-19 17:03:00,
2013-05-19 10:08:00,72.0,20.2,29.32,NNW,347,11.6,11.6,14,0.00,,---,0.00,VWS V14.01,2013-05-19 17:08:00,
2013-05-19 10:13:00,72.0,20.2,29.32,NNW,347,11.6,11.6,14,0.00,,---,0.00,VWS V14.01,2013-05-19 17:13:00,
2013-05-19 10:18:00,72.0,20.2,29.32,NNW,347,11.6,11.6,14,0.00,,---,0.00,VWS V14.01,2013-05-19 17:18:00,
2013-05-19 10:23:00,72.0,20.2,29.32,NNW,347,11.6,11.6,14,0.00,,---,0.00,VWS V14.01,2013-05-19 17:23:00,
2013-05-19 10:28:00,72.0,20.2,29.32,NNW,347,11.6,11.6,14,0.00,,---,0.00,VWS V14.01,2013-05-19 17:28:00,
2013-05-19 10:33:00,72.0,20.2,29.32,NNW,347,11.6,11.6,14,0.00,,---,0.00,VWS V14.01,2013-05-19 17:33:00,
2013-05-19 10:38:00,72.0,20.2,29.32,NNW,347,11.6,11.6,14,0.00,,---,0.00,VWS V14.01,2013-05-19 17:38:00,
2013-05-19 10:43:00,73.6,19.8,29.32,North,6,9.6,12.1,13,0.00,,---,0.00,VWS V14.01,2013-05-19 17:43:00,
2013-05-19 10:48:00,74.3,20.3,29.32,North,356,10.5,10.5,13,0.00,,---,0.00,VWS V14.01,2013-05-19 17:48:00,
2013-05-19 10:53:00,73.9,20.0,29.32,NNW,345,14.3,14.3,13,0.00,,---,0.00,VWS V14.01,2013-05-19 17:53:00,
2013-05-19 10:58:00,74.7,20.6,29.32,NNE,16,12.5,12.5,13,0.00,,---,0.00,VWS V14.01,2013-05-19 17:58:00,
2013-05-19 11:03:00,74.7,20.6,29.32,NNE,16,12.5,12.5,13,0.00,,---,0.00,VWS V14.01,2013-05-19 18:03:00,
2013-05-19 11:08:00,74.3,20.3,29.29,North,6,13.0,13.9,13,0.00,,---,0.00,VWS V14.01,2013-05-19 18:08:00,
2013-05-19 11:13:00,74.5,20.5,29.29,North,5,11.0,16.3,13,0.00,,---,0.00,VWS V14.01,2013-05-19 18:13:00,
2013-05-19 11:18:00,75.2,21.0,29.29,NNE,18,13.0,14.8,13,0.00,,---,0.00,VWS V14.01,2013-05-19 18:18:00,
2013-05-19 11:23:00,75.7,21.5,29.29,North,351,15.2,16.8,13,0.00,,---,0.00,VWS V14.01,2013-05-19 18:23:00,
2013-05-19 11:28:00,76.3,21.9,29.29,North,356,10.5,15.2,13,0.00,,---,0.00,VWS V14.01,2013-05-19 18:28:00,
2013-05-19 11:33:00,75.6,21.3,29.29,North,2,12.1,14.8,13,0.00,,---,0.00,VWS V14.01,2013-05-19 18:33:00,
2013-05-19 11:38:00,76.3,21.9,29.29,NNW,329,15.4,21.0,13,0.00,,---,0.00,VWS V14.01,2013-05-19 18:38:00,
2013-05-19 11:43:00,77.0,22.4,29.29,NNE,12,11.0,16.8,13,0.00,,---,0.00,VWS V14.01,2013-05-19 18:43:00,
2013-05-19 11:48:00,77.2,22.6,29.29,NNE,15,13.0,14.8,13,0.00,,---,0.00,VWS V14.01,2013-05-19 18:48:00,
2013-05-19 11:53:00,76.8,22.3,29.29,NNE,19,8.7,13.4,13,0.00,,---,0.00,VWS V14.01,2013-05-19 18:53:00,
2013-05-19 11:58:00,77.9,23.1,29.29,North,9,15.4,15.4,13,0.00,,---,0.00,VWS V14.01,2013-05-19 18:58:00,
2013-05-19 12:03:00,77.4,22.7,29.29,North,4,12.5,15.2,13,0.00,,---,0.00,VWS V14.01,2013-05-19 19:03:00,
2013-05-19 12:08:00,78.1,21.4,29.29,North,356,13.9,15.2,12,0.00,,---,0.00,VWS V14.01,2013-05-19 19:08:00,
2013-05-19 12:13:00,79.0,22.1,29.29,North,356,13.4,15.4,12,0.00,,---,0.00,VWS V14.01,2013-05-19 19:13:00,
2013-05-19 12:18:00,78.1,21.4,29.29,NW,318,11.6,15.9,12,0.00,,---,0.00,VWS V14.01,2013-05-19 19:18:00,
2013-05-19 12:23:00,78.6,21.8,29.29,NNW,341,13.4,13.4,12,0.00,,---,0.00,VWS V14.01,2013-05-19 19:23:00,
2013-05-19 12:28:00,77.7,23.0,29.29,North,356,10.5,13.9,13,0.00,,---,0.00,VWS V14.01,2013-05-19 19:28:00,
2013-05-19 12:33:00,78.3,21.5,29.29,North,351,8.3,13.4,12,0.00,,---,0.00,VWS V14.01,2013-05-19 19:33:00,
2013-05-19 12:38:00,79.2,22.2,29.29,NNW,336,14.3,15.2,12,0.00,,---,0.00,VWS V14.01,2013-05-19 19:38:00,
2013-05-19 12:43:00,79.2,22.2,29.29,NE,35,11.0,13.9,12,0.00,,---,0.00,VWS V14.01,2013-05-19 19:43:00,
2013-05-19 12:48:00,79.0,22.1,29.29,NNW,342,10.1,15.4,12,0.00,,---,0.00,VWS V14.01,2013-05-19 19:48:00,
2013-05-19 12:53:00,79.9,22.8,29.29,NNW,333,12.5,14.3,12,0.00,,---,0.00,VWS V14.01,2013-05-19 19:53:00,
2013-05-19 12:58:00,80.2,23.1,29.29,North,0,7.8,12.1,12,0.00,,---,0.00,VWS V14.01,2013-05-19 19:58:00,
2013-05-19 13:03:00,81.0,23.6,29.26,NNW,333,9.2,10.1,12,0.00,,---,0.00,VWS V14.01,2013-05-19 20:03:00,
2013-05-19 13:08:00,79.7,22.6,29.26,NNE,21,8.7,13.0,12,0.00,,---,0.00,VWS V14.01,2013-05-19 20:08:00,
2013-05-19 13:13:00,80.8,23.5,29.26,NE,38,9.2,12.5,12,0.00,,---,0.00,VWS V14.01,2013-05-19 20:13:00,
2013-05-19 13:18:00,80.4,23.2,29.26,North,351,8.7,11.2,12,0.00,,---,0.00,VWS V14.01,2013-05-19 20:18:00,
2013-05-19 13:24:00,80.6,23.4,29.26,NNW,337,11.0,12.1,12,0.00,,---,0.00,VWS V14.01,2013-05-19 20:24:00,
2013-05-19 13:29:00,82.2,22.5,29.26,NNE,19,5.8,5.8,11,0.00,,---,0.00,VWS V14.01,2013-05-19 20:29:00,
2013-05-19 13:34:00,81.9,22.2,29.26,North,11,12.5,14.8,11,0.00,,---,0.00,VWS V14.01,2013-05-19 20:34:00,
2013-05-19 13:39:00,81.7,22.1,29.26,NNW,334,8.7,11.6,11,0.00,,---,0.00,VWS V14.01,2013-05-19 20:39:00,
2013-05-19 13:44:00,81.5,22.0,29.26,North,7,7.8,7.8,11,0.00,,---,0.00,VWS V14.01,2013-05-19 20:44:00,
2013-05-19 13:49:00,82.0,22.4,29.26,North,4,11.0,15.2,11,0.00,,---,0.00,VWS V14.01,2013-05-19 20:49:00,
2013-05-19 13:54:00,81.5,22.0,29.26,North,3,11.2,15.4,11,0.00,,---,0.00,VWS V14.01,2013-05-19 20:54:00,
2013-05-19 13:59:00,81.3,23.9,29.26,North,6,8.3,10.5,12,0.00,,---,0.00,VWS V14.01,2013-05-19 20:59:00,
2013-05-19 14:04:00,82.2,22.5,29.26,NNE,22,10.1,14.8,11,0.00,,---,0.00,VWS V14.01,2013-05-19 21:04:00,
2013-05-19 14:09:00,83.3,23.4,29.26,North,351,8.3,9.6,11,0.00,,---,0.00,VWS V14.01,2013-05-19 21:09:00,
2013-05-19 14:14:00,82.4,22.7,29.26,North,4,12.1,13.0,11,0.00,,---,0.00,VWS V14.01,2013-05-19 21:14:00,
2013-05-19 14:19:00,82.6,22.8,29.26,North,356,15.2,15.2,11,0.00,,---,0.00,VWS V14.01,2013-05-19 21:19:00,
2013-05-19 14:24:00,82.2,22.5,29.26,North,9,10.5,17.2,11,0.00,,---,0.00,VWS V14.01,2013-05-19 21:24:00,
2013-05-19 14:29:00,81.7,22.1,29.26,NNW,333,11.2,12.5,11,0.00,,---,0.00,VWS V14.01,2013-05-19 21:29:00,
2013-05-19 14:34:00,82.4,22.7,29.23,North,0,6.7,8.7,11,0.00,,---,0.00,VWS V14.01,2013-05-19 21:34:00,
2013-05-19 14:39:00,82.6,22.8,29.23,NNW,339,8.7,11.0,11,0.00,,---,0.00,VWS V14.01,2013-05-19 21:39:00,
2013-05-19 14:44:00,82.0,22.4,29.23,NE,35,9.6,11.2,11,0.00,,---,0.00,VWS V14.01,2013-05-19 21:44:00,
2013-05-19 14:49:00,83.3,23.4,29.23,NNE,13,8.7,11.6,11,0.00,,---,0.00,VWS V14.01,2013-05-19 21:49:00,
2013-05-19 14:54:00,84.7,24.5,29.23,North,5,8.7,10.1,11,0.00,,---,0.00,VWS V14.01,2013-05-19 21:54:00,
2013-05-19 14:59:00,84.0,23.9,29.23,North,11,12.1,14.3,11,0.00,,---,0.00,VWS V14.01,2013-05-19 21:59:00,
2013-05-19 15:04:00,83.5,23.5,29.23,North,351,13.4,14.3,11,0.00,,---,0.00,VWS V14.01,2013-05-19 22:04:00,
2013-05-19 15:09:00,82.8,23.0,29.23,North,356,8.3,13.0,11,0.00,,---,0.00,VWS V14.01,2013-05-19 22:09:00,
2013-05-19 15:14:00,85.1,24.7,29.23,NNE,17,8.7,11.6,11,0.00,,---,0.00,VWS V14.01,2013-05-19 22:14:00,
2013-05-19 15:19:00,83.1,23.2,29.23,North,356,8.3,14.8,11,0.00,,---,0.00,VWS V14.01,2013-05-19 22:19:00,
2013-05-19 15:24:00,82.9,23.1,29.23,NNW,328,7.8,11.6,11,0.00,,---,0.00,VWS V14.01,2013-05-19 22:24:00,
2013-05-19 15:29:00,83.5,23.5,29.23,North,7,11.0,17.2,11,0.00,,---,0.00,VWS V14.01,2013-05-19 22:29:00,
2013-05-19 15:34:00,84.0,23.9,29.21,NNE,21,12.5,12.5,11,0.00,,---,0.00,VWS V14.01,2013-05-19 22:34:00,
2013-05-19 15:39:00,84.2,24.0,29.21,North,5,9.6,11.2,11,0.00,,---,0.00,VWS V14.01,2013-05-19 22:39:00,
2013-05-19 15:44:00,82.9,23.1,29.21,NNW,335,13.0,14.8,11,0.00,,---,0.00,VWS V14.01,2013-05-19 22:44:00,
2013-05-19 15:49:00,84.6,24.3,29.21,North,351,14.8,16.3,11,0.00,,---,0.00,VWS V14.01,2013-05-19 22:49:00,
2013-05-19 15:54:00,84.6,24.3,29.21,North,356,13.9,17.2,11,0.00,,---,0.00,VWS V14.01,2013-05-19 22:54:00,
2013-05-19 15:59:00,84.0,23.9,29.21,North,8,13.4,15.9,11,0.00,,---,0.00,VWS V14.01,2013-05-19 22:59:00,
2013-05-19 16:04:00,83.8,23.8,29.21,North,1,6.3,9.2,11,0.00,,---,0.00,VWS V14.01,2013-05-19 23:04:00,
2013-05-19 16:09:00,84.0,23.9,29.21,NNW,343,11.0,13.0,11,0.00,,---,0.00,VWS V14.01,2013-05-19 23:09:00,
2013-05-19 16:14:00,84.0,23.9,29.21,NNE,24,8.3,14.3,11,0.00,,---,0.00,VWS V14.01,2013-05-19 23:14:00,
2013-05-19 16:19:00,83.7,23.6,29.21,North,356,9.6,15.4,11,0.00,,---,0.00,VWS V14.01,2013-05-19 23:19:00,
2013-05-19 16:24:00,84.2,24.0,29.21,North,6,12.1,14.8,11,0.00,,---,0.00,VWS V14.01,2013-05-19 23:24:00,
2013-05-19 16:29:00,83.7,23.6,29.21,North,356,11.6,14.8,11,0.00,,---,0.00,VWS V14.01,2013-05-19 23:29:00,
2013-05-19 16:34:00,83.8,23.8,29.21,North,5,14.3,14.3,11,0.00,,---,0.00,VWS V14.01,2013-05-19 23:34:00,
2013-05-19 16:39:00,83.5,23.5,29.21,North,3,7.8,11.2,11,0.00,,---,0.00,VWS V14.01,2013-05-19 23:39:00,
2013-05-19 16:44:00,84.9,24.6,29.21,NW,320,16.3,16.3,11,0.00,,---,0.00,VWS V14.01,2013-05-19 23:44:00,
2013-05-19 16:49:00,84.6,24.3,29.21,SE,134,6.9,10.1,11,0.00,,---,0.00,VWS V14.01,2013-05-19 23:49:00,
2013-05-19 16:54:00,84.0,23.9,29.21,North,351,14.3,17.7,11,0.00,,---,0.00,VWS V14.01,2013-05-19 23:54:00,
2013-05-19 16:59:00,84.7,24.5,29.21,NW,312,11.0,11.0,11,0.00,,---,0.00,VWS V14.01,2013-05-19 23:59:00,
2013-05-19 17:04:00,84.6,24.3,29.21,NNW,332,10.1,10.1,11,0.00,,---,0.00,VWS V14.01,2013-05-20 00:04:00,
2013-05-19 17:09:00,85.3,24.9,29.21,NW,307,13.4,14.8,11,0.00,,---,0.00,VWS V14.01,2013-05-20 00:09:00,
2013-05-19 17:14:00,84.0,23.9,29.21,NW,321,10.1,11.2,11,0.00,,---,0.00,VWS V14.01,2013-05-20 00:14:00,
2013-05-19 17:19:00,84.7,24.5,29.21,WSW,248,6.9,10.1,11,0.00,,---,0.00,VWS V14.01,2013-05-20 00:19:00,
2013-05-19 17:24:00,84.7,24.5,29.21,North,351,9.6,9.6,11,0.00,,---,0.00,VWS V14.01,2013-05-20 00:24:00,
2013-05-19 17:29:00,84.7,24.5,29.21,West,279,9.6,13.4,11,0.00,,---,0.00,VWS V14.01,2013-05-20 00:29:00,
2013-05-19 17:34:00,84.4,24.2,29.21,WSW,256,10.1,15.4,11,0.00,,---,0.00,VWS V14.01,2013-05-20 00:34:00,
2013-05-19 17:39:00,83.5,23.5,29.21,WSW,256,10.5,13.9,11,0.00,,---,0.00,VWS V14.01,2013-05-20 00:39:00,
2013-05-19 17:44:00,83.1,23.2,29.21,WSW,254,9.2,12.5,11,0.00,,---,0.00,VWS V14.01,2013-05-20 00:44:00,
2013-05-19 17:49:00,82.9,23.1,29.21,West,270,9.6,10.5,11,0.00,,---,0.00,VWS V14.01,2013-05-20 00:49:00,
2013-05-19 17:54:00,82.9,23.1,29.21,West,269,11.0,14.3,11,0.00,,---,0.00,VWS V14.01,2013-05-20 00:54:00,
2013-05-19 17:59:00,82.8,23.0,29.21,West,273,8.3,12.1,11,0.00,,---,0.00,VWS V14.01,2013-05-20 00:59:00,
2013-05-19 18:04:00,82.8,23.0,29.18,West,270,10.1,12.5,11,0.00,,---,0.00,VWS V14.01,2013-05-20 01:04:00,
2013-05-19 18:09:00,82.6,22.8,29.18,West,276,11.2,14.3,11,0.00,,---,0.00,VWS V14.01,2013-05-20 01:09:00,
2013-05-19 18:14:00,82.4,22.7,29.18,WSW,249,8.3,10.5,11,0.00,,---,0.00,VWS V14.01,2013-05-20 01:14:00,
2013-05-19 18:19:00,81.7,22.1,29.18,West,277,9.6,12.5,11,0.00,,---,0.00,VWS V14.01,2013-05-20 01:19:00,
2013-05-19 18:24:00,81.3,23.9,29.18,West,273,11.6,11.6,12,0.00,,---,0.00,VWS V14.01,2013-05-20 01:24:00,
2013-05-19 18:29:00,81.1,23.8,29.18,West,274,7.4,10.5,12,0.00,,---,0.00,VWS V14.01,2013-05-20 01:29:00,
2013-05-19 18:34:00,81.1,23.8,29.18,West,276,11.0,12.5,12,0.00,,---,0.00,VWS V14.01,2013-05-20 01:34:00,
2013-05-19 18:39:00,80.6,23.4,29.18,West,276,9.2,11.6,12,0.00,,---,0.00,VWS V14.01,2013-05-20 01:39:00,
2013-05-19 18:44:00,80.4,23.2,29.18,West,264,6.9,7.4,12,0.00,,---,0.00,VWS V14.01,2013-05-20 01:44:00,
2013-05-19 18:49:00,80.1,22.9,29.18,West,271,4.9,9.2,12,0.00,,---,0.00,VWS V14.01,2013-05-20 01:49:00,
2013-05-19 18:54:00,79.5,22.5,29.18,West,264,11.0,11.0,12,0.00,,---,0.00,VWS V14.01,2013-05-20 01:54:00,
2013-05-19 18:59:00,79.2,22.2,29.18,WSW,258,11.0,11.2,12,0.00,,---,0.00,VWS V14.01,2013-05-20 01:59:00,
2013-05-19 19:04:00,78.6,21.8,29.18,West,259,7.4,11.2,12,0.00,,---,0.00,VWS V14.01,2013-05-20 02:04:00,
2013-05-19 19:09:00,78.1,21.4,29.18,West,264,6.9,10.1,12,0.00,,---,0.00,VWS V14.01,2013-05-20 02:09:00,
2013-05-19 19:14:00,77.7,23.0,29.18,West,272,7.4,11.2,13,0.00,,---,0.00,VWS V14.01,2013-05-20 02:14:00,
2013-05-19 19:19:00,78.1,21.4,29.18,WSW,250,6.3,7.8,12,0.00,,---,0.00,VWS V14.01,2013-05-20 02:19:00,
2013-05-19 19:24:00,78.6,21.8,29.18,WSW,255,7.8,10.1,12,0.00,,---,0.00,VWS V14.01,2013-05-20 02:24:00,
2013-05-19 19:29:00,78.6,21.8,29.18,West,262,4.5,5.4,12,0.00,,---,0.00,VWS V14.01,2013-05-20 02:29:00,
2013-05-19 19:34:00,78.6,21.8,29.21,SW,226,7.4,8.3,12,0.00,,---,0.00,VWS V14.01,2013-05-20 02:34:00,
2013-05-19 19:39:00,77.7,23.0,29.21,WSW,248,5.4,6.7,13,0.00,,---,0.00,VWS V14.01,2013-05-20 02:39:00,
2013-05-19 19:45:00,76.5,22.0,29.21,SW,235,6.7,7.4,13,0.00,,---,0.00,VWS V14.01,2013-05-20 02:45:00,
2013-05-19 19:50:00,75.6,21.3,29.21,WSW,247,8.3,8.7,13,0.00,,---,0.00,VWS V14.01,2013-05-20 02:50:00,
2013-05-19 19:55:00,74.8,20.7,29.21,WSW,254,6.7,7.8,13,0.00,,---,0.00,VWS V14.01,2013-05-20 02:55:00,
2013-05-19 20:00:00,73.9,20.0,29.21,WSW,243,5.8,6.9,13,0.00,,---,0.00,VWS V14.01,2013-05-20 03:00:00,
2013-05-19 20:05:00,72.9,19.2,29.21,WSW,243,4.9,5.8,13,0.00,,---,0.00,VWS V14.01,2013-05-20 03:05:00,
2013-05-19 20:10:00,71.8,20.1,29.21,SW,231,4.9,6.3,14,0.00,,---,0.00,VWS V14.01,2013-05-20 03:10:00,
2013-05-19 20:15:00,70.5,19.1,29.21,West,265,4.9,5.4,14,0.00,,---,0.00,VWS V14.01,2013-05-20 03:15:00,
2013-05-19 20:20:00,69.8,18.5,29.21,WSW,256,4.0,4.5,14,0.00,,---,0.00,VWS V14.01,2013-05-20 03:20:00,
2013-05-19 20:25:00,69.1,17.9,29.21,WSW,253,4.0,4.5,14,0.00,,---,0.00,VWS V14.01,2013-05-20 03:25:00,
2013-05-19 20:30:00,68.5,19.1,29.21,SW,234,4.0,4.9,15,0.00,,---,0.00,VWS V14.01,2013-05-20 03:30:00,
2013-05-19 20:35:00,68.5,19.1,29.21,SW,225,0.0,4.0,15,0.00,,---,0.00,VWS V14.01,2013-05-20 03:35:00,
2013-05-19 20:41:00,67.5,18.2,29.21,SW,225,0.0,0.0,15,0.00,,---,0.00,VWS V14.01,2013-05-20 03:41:00,
2013-05-19 20:46:00,67.1,17.9,29.21,SW,225,0.0,0.0,15,0.00,,---,0.00,VWS V14.01,2013-05-20 03:46:00,
2013-05-19 20:51:00,67.1,17.9,29.21,SSW,206,0.0,2.7,15,0.00,,---,0.00,VWS V14.01,2013-05-20 03:51:00,
2013-05-19 20:56:00,66.6,17.5,29.21,SSW,206,0.0,0.0,15,0.00,,---,0.00,VWS V14.01,2013-05-20 03:56:00,
2013-05-19 21:01:00,66.4,17.4,29.21,SSW,206,0.0,2.7,15,0.00,,---,0.00,VWS V14.01,2013-05-20 04:01:00,
2013-05-19 21:02:00,66.2,17.2,29.21,SSW,206,0.0,0.0,15,0.00,,---,0.00,VWS V14.01,2013-05-20 04:02:00,
2013-05-19 21:03:00,66.0,17.1,29.23,SSW,199,3.6,3.6,15,0.00,,---,0.00,VWS V14.01,2013-05-20 04:03:00,
2013-05-19 21:07:00,65.7,16.8,29.23,SSW,194,0.0,0.0,15,0.00,,---,0.00,VWS V14.01,2013-05-20 04:07:00,
2013-05-19 21:11:00,66.0,17.1,29.23,South,186,0.0,0.0,15,0.00,,---,0.00,VWS V14.01,2013-05-20 04:11:00,
2013-05-19 21:16:00,65.8,16.9,29.23,ESE,111,0.0,0.0,15,0.00,,---,0.00,VWS V14.01,2013-05-20 04:16:00,
2013-05-19 21:21:00,65.5,16.6,29.23,ESE,104,3.1,3.6,15,0.00,,---,0.00,VWS V14.01,2013-05-20 04:21:00,
2013-05-19 21:26:00,64.6,15.9,29.23,ESE,104,0.0,0.0,15,0.00,,---,0.00,VWS V14.01,2013-05-20 04:26:00,
2013-05-19 21:31:00,64.0,15.5,29.23,ESE,104,0.0,0.0,15,0.00,,---,0.00,VWS V14.01,2013-05-20 04:31:00,
2013-05-19 21:36:00,64.4,15.8,29.23,ESE,104,3.6,3.6,15,0.00,,---,0.00,VWS V14.01,2013-05-20 04:36:00,
2013-05-19 21:42:00,63.7,15.2,29.23,ESE,104,2.7,2.7,15,0.00,,---,0.00,VWS V14.01,2013-05-20 04:42:00,
2013-05-19 21:47:00,63.5,15.1,29.23,ESE,104,3.1,3.6,15,0.00,,---,0.00,VWS V14.01,2013-05-20 04:47:00,
2013-05-19 21:52:00,63.0,16.1,29.23,ESE,104,0.0,0.0,16,0.00,,---,0.00,VWS V14.01,2013-05-20 04:52:00,
2013-05-19 21:57:00,61.7,15.1,29.23,ESE,104,0.0,0.0,16,0.00,,---,0.00,VWS V14.01,2013-05-20 04:57:00,
2013-05-19 22:02:00,60.4,14.1,29.23,ESE,104,0.0,0.0,16,0.00,,---,0.00,VWS V14.01,2013-05-20 05:02:00,
2013-05-19 22:07:00,60.1,13.8,29.23,ESE,104,0.0,0.0,16,0.00,,---,0.00,VWS V14.01,2013-05-20 05:07:00,
2013-05-19 22:12:00,59.7,14.9,29.23,ESE,104,0.0,0.0,17,0.00,,---,0.00,VWS V14.01,2013-05-20 05:12:00,
2013-05-19 22:17:00,59.9,13.6,29.23,ESE,104,0.0,0.0,16,0.00,,---,0.00,VWS V14.01,2013-05-20 05:17:00,
2013-05-19 22:22:00,59.9,15.0,29.23,ESE,104,0.0,0.0,17,0.00,,---,0.00,VWS V14.01,2013-05-20 05:22:00,
2013-05-19 22:27:00,59.0,14.3,29.23,ESE,104,0.0,0.0,17,0.00,,---,0.00,VWS V14.01,2013-05-20 05:27:00,
2013-05-19 22:32:00,58.6,14.0,29.23,ESE,104,0.0,0.0,17,0.00,,---,0.00,VWS V14.01,2013-05-20 05:32:00,
2013-05-19 22:37:00,57.7,13.2,29.23,ESE,104,0.0,0.0,17,0.00,,---,0.00,VWS V14.01,2013-05-20 05:37:00,
2013-05-19 22:42:00,57.4,12.9,29.23,ESE,104,0.0,0.0,17,0.00,,---,0.00,VWS V14.01,2013-05-20 05:42:00,
2013-05-19 22:47:00,56.7,12.4,29.23,ESE,104,0.0,0.0,17,0.00,,---,0.00,VWS V14.01,2013-05-20 05:47:00,
2013-05-19 22:52:00,56.7,12.4,29.23,ESE,104,0.0,0.0,17,0.00,,---,0.00,VWS V14.01,2013-05-20 05:52:00,
2013-05-19 22:57:00,56.7,12.4,29.23,ESE,104,0.0,0.0,17,0.00,,---,0.00,VWS V14.01,2013-05-20 05:57:00,
2013-05-19 23:02:00,56.7,12.4,29.23,ESE,104,0.0,0.0,17,0.00,,---,0.00,VWS V14.01,2013-05-20 06:02:00,
2013-05-19 23:07:00,57.6,13.1,29.23,ESE,104,3.1,3.6,17,0.00,,---,0.00,VWS V14.01,2013-05-20 06:07:00,
2013-05-19 23:12:00,59.0,14.3,29.23,ESE,104,0.0,2.7,17,0.00,,---,0.00,VWS V14.01,2013-05-20 06:12:00,
2013-05-19 23:17:00,59.2,14.4,29.23,ESE,104,0.0,0.0,17,0.00,,---,0.00,VWS V14.01,2013-05-20 06:17:00,
2013-05-19 23:22:00,58.5,13.8,29.23,ESE,104,0.0,0.0,17,0.00,,---,0.00,VWS V14.01,2013-05-20 06:22:00,
2013-05-19 23:27:00,57.4,12.9,29.23,ESE,104,0.0,0.0,17,0.00,,---,0.00,VWS V14.01,2013-05-20 06:27:00,
2013-05-19 23:32:00,57.0,12.7,29.23,ESE,104,0.0,0.0,17,0.00,,---,0.00,VWS V14.01,2013-05-20 06:32:00,
2013-05-19 23:37:00,57.7,13.2,29.23,East,89,0.0,0.0,17,0.00,,---,0.00,VWS V14.01,2013-05-20 06:37:00,
2013-05-19 23:42:00,57.9,13.4,29.23,East,89,0.0,0.0,17,0.00,,---,0.00,VWS V14.01,2013-05-20 06:42:00,
2013-05-19 23:47:00,57.7,13.2,29.23,East,89,0.0,0.0,17,0.00,,---,0.00,VWS V14.01,2013-05-20 06:47:00,
2013-05-19 23:52:00,57.9,13.4,29.23,East,97,0.0,0.0,17,0.00,,---,0.00,VWS V14.01,2013-05-20 06:52:00,
2013-05-19 23:57:00,57.4,12.9,29.23,East,97,0.0,0.0,17,0.00,,---,0.00,VWS V14.01,2013-05-20 06:57:00,